AUA83A LOWW-LGIR

Flight info

Callsign AUA83A
Flight time 2h 1m
Altitude 37000
Route ARSIN1C ARSIN DCT NALOX DCT BABIT DCT OKTAS DCT REDVA UL616 KOGAT DCT TALAS UM749 ELPIS DCT KEA UL607 GIVIS T514 XAVIS XAVIS1A
Aircraft A320/M-SDE3FGHIRWY/LB1

Departure

Time 2026-04-30 11:17
Airport Vienna International Airport (LOWW)

Arrival

Time 2026-04-30 13:18
Airport Heraklion International Nikos Kazantzakis Airport (LGIR)
Time Latitude Longitude Altitude Speed Heading
2026-04-30 10:37 48.11463 16.57013 622 ft 0 kts 206°
2026-04-30 11:11 48.11458 16.57009 620 ft 5 kts 206°
2026-04-30 11:11 48.11408 16.56975 613 ft 7 kts 190°
2026-04-30 11:11 48.11382 16.57025 619 ft 8 kts 117°
2026-04-30 11:11 48.11334 16.57063 614 ft 10 kts 199°
2026-04-30 11:12 48.11277 16.57069 611 ft 9 kts 131°
2026-04-30 11:12 48.11250 16.57147 612 ft 8 kts 116°
2026-04-30 11:12 48.11219 16.57246 611 ft 10 kts 116°
2026-04-30 11:12 48.11195 16.57318 618 ft 7 kts 116°
2026-04-30 11:13 48.11176 16.57376 616 ft 6 kts 116°
2026-04-30 11:13 48.11160 16.57426 609 ft 5 kts 116°
2026-04-30 11:13 48.11142 16.57481 618 ft 9 kts 115°
2026-04-30 11:13 48.11112 16.57572 615 ft 9 kts 115°
2026-04-30 11:14 48.11081 16.57652 609 ft 9 kts 144°
2026-04-30 11:14 48.11037 16.57642 609 ft 4 kts 204°
2026-04-30 11:14 48.11019 16.57630 617 ft 2 kts 204°
2026-04-30 11:14 48.10974 16.57594 616 ft 10 kts 210°
2026-04-30 11:15 48.10924 16.57546 613 ft 6 kts 213°
2026-04-30 11:15 48.10920 16.57515 609 ft 3 kts 290°
2026-04-30 11:15 48.10928 16.57490 614 ft 0 kts 295°
2026-04-30 11:16 48.10929 16.57487 613 ft 4 kts 296°
2026-04-30 11:16 48.11039 16.57156 615 ft 73 kts 296°
2026-04-30 11:16 48.11360 16.56171 620 ft 134 kts 296°
2026-04-30 11:16 48.11823 16.54732 885 ft 159 kts 298°
2026-04-30 11:17 48.12105 16.53137 1816 ft 164 kts 269°
2026-04-30 11:17 48.11653 16.51442 2232 ft 193 kts 227°
2026-04-30 11:17 48.10598 16.50072 2679 ft 214 kts 218°
2026-04-30 11:17 48.09325 16.48673 3142 ft 239 kts 217°
2026-04-30 11:18 48.07825 16.47361 3679 ft 262 kts 197°
2026-04-30 11:18 48.04106 16.47547 5450 ft 272 kts 169°
2026-04-30 11:18 48.02228 16.48035 6458 ft 276 kts 169°
2026-04-30 11:19 48.00300 16.48470 7309 ft 282 kts 172°
2026-04-30 11:19 47.98328 16.48757 8203 ft 287 kts 181°
2026-04-30 11:19 47.96341 16.48377 9078 ft 292 kts 196°
2026-04-30 11:19 47.94450 16.47238 9964 ft 295 kts 209°
2026-04-30 11:20 47.92604 16.45796 10645 ft 308 kts 210°
2026-04-30 11:20 47.90598 16.44367 10949 ft 333 kts 202°
2026-04-30 11:20 47.88311 16.43493 11363 ft 351 kts 189°
2026-04-30 11:20 47.85836 16.43371 12080 ft 359 kts 176°
2026-04-30 11:21 47.83356 16.44028 12849 ft 365 kts 166°
2026-04-30 11:21 47.80888 16.45006 13606 ft 370 kts 166°
2026-04-30 11:21 47.78380 16.46002 14342 ft 374 kts 166°
2026-04-30 11:21 47.75849 16.47008 14996 ft 379 kts 166°
2026-04-30 11:22 47.73286 16.48020 15660 ft 383 kts 166°
2026-04-30 11:22 47.70692 16.49045 16310 ft 387 kts 166°
2026-04-30 11:22 47.68071 16.50090 16963 ft 392 kts 165°
2026-04-30 11:22 47.65451 16.51142 17593 ft 396 kts 165°
2026-04-30 11:23 47.62740 16.52235 18223 ft 401 kts 165°
2026-04-30 11:23 47.60069 16.53311 18829 ft 405 kts 166°
2026-04-30 11:23 47.54568 16.55504 19936 ft 412 kts 166°
2026-04-30 11:24 47.51782 16.56604 20518 ft 416 kts 167°
2026-04-30 11:24 47.48972 16.57715 21078 ft 419 kts 167°
2026-04-30 11:24 47.46140 16.58832 21641 ft 423 kts 167°
2026-04-30 11:25 47.40405 16.61097 22733 ft 430 kts 167°
2026-04-30 11:25 47.37503 16.62243 23263 ft 433 kts 168°
2026-04-30 11:25 47.31631 16.64560 24249 ft 439 kts 168°
2026-04-30 11:26 47.25721 16.66881 25060 ft 444 kts 168°
2026-04-30 11:26 47.22718 16.68058 25475 ft 446 kts 168°
2026-04-30 11:26 47.19706 16.69240 25866 ft 448 kts 168°
2026-04-30 11:27 47.16683 16.70423 26245 ft 451 kts 168°
2026-04-30 11:27 47.13638 16.71612 26615 ft 453 kts 168°
2026-04-30 11:27 47.10578 16.72807 26996 ft 456 kts 168°
2026-04-30 11:27 47.07504 16.74013 27361 ft 458 kts 168°
2026-04-30 11:28 47.01346 16.76422 28065 ft 463 kts 168°
2026-04-30 11:28 46.98215 16.77644 28409 ft 466 kts 168°
2026-04-30 11:28 46.95070 16.78866 28752 ft 468 kts 168°
2026-04-30 11:29 46.91952 16.80400 29075 ft 473 kts 159°
2026-04-30 11:29 46.89025 16.82647 29383 ft 478 kts 148°
2026-04-30 11:29 46.84079 16.89118 29972 ft 484 kts 128°
2026-04-30 11:30 46.80379 16.97395 30512 ft 488 kts 121°
2026-04-30 11:30 46.78566 17.01620 30745 ft 490 kts 121°
2026-04-30 11:30 46.76741 17.05845 30973 ft 492 kts 122°
2026-04-30 11:31 46.74912 17.10059 31258 ft 491 kts 122°
2026-04-30 11:31 46.73078 17.14273 31553 ft 491 kts 122°
2026-04-30 11:31 46.71267 17.18430 31849 ft 491 kts 122°
2026-04-30 11:31 46.69437 17.22637 32143 ft 491 kts 122°
2026-04-30 11:32 46.67610 17.26840 32424 ft 491 kts 122°
2026-04-30 11:32 46.65779 17.31059 32706 ft 491 kts 121°
2026-04-30 11:32 46.63949 17.35270 33006 ft 491 kts 122°
2026-04-30 11:33 46.60272 17.43680 33606 ft 491 kts 122°
2026-04-30 11:33 46.58457 17.47819 33869 ft 492 kts 122°
2026-04-30 11:33 46.56616 17.52014 34181 ft 492 kts 122°
2026-04-30 11:33 46.54772 17.56208 34466 ft 492 kts 122°
2026-04-30 11:34 46.52927 17.60398 34709 ft 492 kts 122°
2026-04-30 11:34 46.51078 17.64593 34961 ft 491 kts 122°
2026-04-30 11:34 46.49236 17.68770 35228 ft 491 kts 122°
2026-04-30 11:34 46.47392 17.72948 35487 ft 490 kts 122°
2026-04-30 11:35 46.45573 17.77060 35729 ft 490 kts 122°
2026-04-30 11:35 46.43725 17.81219 35964 ft 489 kts 122°
2026-04-30 11:35 46.41877 17.85365 36201 ft 489 kts 122°
2026-04-30 11:35 46.40030 17.89507 36432 ft 488 kts 122°
2026-04-30 11:36 46.38188 17.93644 36643 ft 488 kts 122°
2026-04-30 11:36 46.36349 17.97776 36852 ft 488 kts 122°
2026-04-30 11:36 46.34507 18.01910 37068 ft 488 kts 122°
2026-04-30 11:36 46.32664 18.06037 37274 ft 487 kts 122°
2026-04-30 11:37 46.28966 18.14292 37384 ft 488 kts 122°
2026-04-30 11:37 46.25287 18.22467 37382 ft 488 kts 122°
2026-04-30 11:38 46.21576 18.30688 37379 ft 488 kts 122°
2026-04-30 11:38 46.18459 18.37579 37377 ft 488 kts 122°
2026-04-30 11:39 46.14755 18.45738 37379 ft 489 kts 123°
2026-04-30 11:39 46.11019 18.53951 37381 ft 489 kts 123°
2026-04-30 11:40 46.07284 18.62151 37376 ft 489 kts 123°
2026-04-30 11:40 46.03538 18.70337 37374 ft 489 kts 123°
2026-04-30 11:41 45.99790 18.78504 37367 ft 489 kts 123°
2026-04-30 11:41 45.96051 18.86602 37367 ft 489 kts 126°
2026-04-30 11:42 45.91354 18.93629 37362 ft 487 kts 144°
2026-04-30 11:42 45.85530 18.98518 37353 ft 485 kts 155°
2026-04-30 11:43 45.79514 19.02914 37346 ft 485 kts 155°
2026-04-30 11:43 45.73496 19.07324 37349 ft 485 kts 155°
2026-04-30 11:44 45.67480 19.11729 37347 ft 486 kts 155°
2026-04-30 11:44 45.61499 19.16092 37354 ft 485 kts 155°
2026-04-30 11:45 45.55476 19.20472 37348 ft 486 kts 155°
2026-04-30 11:45 45.49449 19.24845 37350 ft 486 kts 155°
2026-04-30 11:46 45.43417 19.29209 37339 ft 485 kts 155°
2026-04-30 11:46 45.37381 19.33568 37334 ft 485 kts 155°
2026-04-30 11:47 45.31396 19.37883 37335 ft 485 kts 155°
2026-04-30 11:47 45.25378 19.42212 37332 ft 482 kts 154°
2026-04-30 11:48 45.19397 19.46505 37333 ft 482 kts 154°
2026-04-30 11:48 45.13395 19.50800 37327 ft 482 kts 154°
2026-04-30 11:49 45.07433 19.55047 37331 ft 482 kts 155°
2026-04-30 11:49 45.01430 19.59309 37330 ft 482 kts 155°
2026-04-30 11:50 44.95425 19.63578 37331 ft 482 kts 155°
2026-04-30 11:50 44.89355 19.67565 37330 ft 479 kts 163°
2026-04-30 11:51 44.83099 19.70691 37333 ft 479 kts 163°
2026-04-30 11:51 44.76798 19.73821 37329 ft 479 kts 163°
2026-04-30 11:52 44.70500 19.76954 37326 ft 479 kts 163°
2026-04-30 11:52 44.64215 19.80082 37328 ft 479 kts 163°
2026-04-30 11:53 44.57966 19.83178 37327 ft 478 kts 163°
2026-04-30 11:53 44.51679 19.86278 37324 ft 478 kts 163°
2026-04-30 11:54 44.45401 19.89375 37318 ft 478 kts 164°
2026-04-30 11:54 44.39130 19.92463 37314 ft 478 kts 164°
2026-04-30 11:55 44.32856 19.95544 37310 ft 478 kts 164°
2026-04-30 11:55 44.26580 19.98619 37306 ft 478 kts 164°
2026-04-30 11:56 44.20299 20.01685 37302 ft 477 kts 164°
2026-04-30 11:56 44.14065 20.04727 37299 ft 477 kts 164°
2026-04-30 11:57 44.07787 20.07774 37293 ft 477 kts 165°
2026-04-30 11:57 44.01504 20.10829 37292 ft 477 kts 165°
2026-04-30 11:58 43.95267 20.13860 37294 ft 477 kts 165°
2026-04-30 11:58 43.88997 20.16898 37291 ft 477 kts 165°
2026-04-30 11:59 43.82720 20.19930 37288 ft 476 kts 165°
2026-04-30 11:59 43.76448 20.22938 37292 ft 476 kts 165°
2026-04-30 12:00 43.70227 20.25923 37284 ft 476 kts 165°
2026-04-30 12:00 43.63960 20.28928 37288 ft 476 kts 165°
2026-04-30 12:01 43.57688 20.31925 37283 ft 476 kts 166°
2026-04-30 12:01 43.51415 20.34923 37278 ft 476 kts 166°
2026-04-30 12:02 43.45143 20.37909 37283 ft 476 kts 166°
2026-04-30 12:02 43.38916 20.40855 37284 ft 476 kts 166°
2026-04-30 12:03 43.29524 20.45296 37287 ft 475 kts 166°
2026-04-30 12:04 43.23258 20.48257 37281 ft 475 kts 166°
2026-04-30 12:04 43.17038 20.51196 37280 ft 475 kts 166°
2026-04-30 12:05 43.10767 20.54140 37279 ft 475 kts 167°
2026-04-30 12:05 43.04514 20.57068 37272 ft 475 kts 167°
2026-04-30 12:06 42.98263 20.60055 37268 ft 476 kts 165°
2026-04-30 12:06 42.92104 20.63324 37271 ft 477 kts 164°
2026-04-30 12:07 42.85928 20.66697 37266 ft 477 kts 164°
2026-04-30 12:07 42.79734 20.70000 37268 ft 477 kts 165°
2026-04-30 12:08 42.73534 20.73233 37269 ft 477 kts 165°
2026-04-30 12:08 42.67353 20.76451 37270 ft 477 kts 165°
2026-04-30 12:09 42.61148 20.79700 37268 ft 478 kts 165°
2026-04-30 12:09 42.54921 20.82951 37270 ft 478 kts 165°
2026-04-30 12:10 42.48733 20.86177 37268 ft 479 kts 165°
2026-04-30 12:10 42.42497 20.89415 37270 ft 479 kts 166°
2026-04-30 12:11 42.36271 20.92642 37267 ft 479 kts 165°
2026-04-30 12:11 42.30039 20.95876 37276 ft 479 kts 165°
2026-04-30 12:12 42.23853 20.99074 37250 ft 478 kts 165°
2026-04-30 12:12 42.17634 21.02278 37254 ft 478 kts 166°
2026-04-30 12:13 42.11437 21.05590 37240 ft 482 kts 159°
2026-04-30 12:13 42.05627 21.10305 37246 ft 489 kts 153°
2026-04-30 12:14 41.99869 21.15186 37250 ft 489 kts 153°
2026-04-30 12:14 41.94111 21.20035 37248 ft 488 kts 154°
2026-04-30 12:15 41.88350 21.24865 37248 ft 488 kts 154°
2026-04-30 12:15 41.82595 21.29698 37244 ft 488 kts 153°
2026-04-30 12:16 41.76877 21.34494 37238 ft 488 kts 154°
2026-04-30 12:16 41.71124 21.39304 37225 ft 487 kts 153°
2026-04-30 12:17 41.62483 21.46506 37201 ft 487 kts 154°
2026-04-30 12:17 41.56727 21.51286 37197 ft 486 kts 154°
2026-04-30 12:18 41.51009 21.56031 37199 ft 486 kts 154°
2026-04-30 12:18 41.46204 21.60015 37193 ft 485 kts 154°
2026-04-30 12:19 41.40507 21.64721 37193 ft 484 kts 154°
2026-04-30 12:19 41.34770 21.69452 37191 ft 483 kts 154°
2026-04-30 12:20 41.29027 21.74170 37185 ft 482 kts 154°
2026-04-30 12:20 41.23359 21.78824 37176 ft 482 kts 154°
2026-04-30 12:21 41.17656 21.83510 37160 ft 481 kts 154°
2026-04-30 12:21 41.11960 21.88169 37153 ft 480 kts 154°
2026-04-30 12:22 41.06267 21.92844 37143 ft 480 kts 153°
2026-04-30 12:22 41.00731 21.97850 37128 ft 482 kts 150°
2026-04-30 12:23 40.95324 22.03012 37108 ft 482 kts 149°
2026-04-30 12:23 40.89867 22.08162 37096 ft 481 kts 150°
2026-04-30 12:24 40.84368 22.13214 37079 ft 481 kts 151°
2026-04-30 12:24 40.78747 22.17948 37068 ft 476 kts 156°
2026-04-30 12:25 40.72932 22.22181 37058 ft 475 kts 157°
2026-04-30 12:25 40.67141 22.26306 37056 ft 475 kts 157°
2026-04-30 12:26 40.61324 22.30470 37053 ft 475 kts 156°
2026-04-30 12:26 40.55502 22.34662 37052 ft 475 kts 156°
2026-04-30 12:27 40.49694 22.38843 37049 ft 475 kts 156°
2026-04-30 12:27 40.43920 22.42975 37050 ft 475 kts 156°
2026-04-30 12:28 40.38102 22.47122 37048 ft 475 kts 156°
2026-04-30 12:28 40.32295 22.51263 37048 ft 475 kts 156°
2026-04-30 12:29 40.26525 22.55378 37048 ft 474 kts 156°
2026-04-30 12:29 40.20701 22.59513 37050 ft 474 kts 156°
2026-04-30 12:30 40.14898 22.63618 37046 ft 474 kts 156°
2026-04-30 12:30 40.09134 22.67694 37049 ft 473 kts 156°
2026-04-30 12:31 40.03334 22.71790 37045 ft 473 kts 156°
2026-04-30 12:31 39.97528 22.75889 37048 ft 473 kts 156°
2026-04-30 12:32 39.91728 22.79971 37044 ft 473 kts 156°
2026-04-30 12:32 39.85941 22.84031 37049 ft 473 kts 156°
2026-04-30 12:33 39.80182 22.88058 37040 ft 472 kts 156°
2026-04-30 12:33 39.74388 22.92105 37048 ft 472 kts 156°
2026-04-30 12:34 39.68598 22.96145 37046 ft 472 kts 156°
2026-04-30 12:34 39.62811 23.00192 37051 ft 472 kts 156°
2026-04-30 12:35 39.57022 23.04223 37051 ft 471 kts 156°
2026-04-30 12:35 39.51263 23.08203 37045 ft 471 kts 156°
2026-04-30 12:36 39.45481 23.12206 37045 ft 470 kts 156°
2026-04-30 12:36 39.39702 23.16203 37043 ft 470 kts 156°
2026-04-30 12:37 39.33924 23.20187 37040 ft 470 kts 156°
2026-04-30 12:37 39.28151 23.24161 37037 ft 469 kts 156°
2026-04-30 12:38 39.22441 23.28091 37029 ft 464 kts 156°
2026-04-30 12:38 39.16714 23.32020 37028 ft 468 kts 156°
2026-04-30 12:39 39.10946 23.35969 37033 ft 469 kts 156°
2026-04-30 12:39 39.05173 23.39919 37029 ft 469 kts 156°
2026-04-30 12:40 38.99410 23.43858 37030 ft 469 kts 156°
2026-04-30 12:40 38.93672 23.47760 37029 ft 469 kts 157°
2026-04-30 12:41 38.87903 23.51679 37027 ft 469 kts 157°
2026-04-30 12:41 38.82130 23.55604 37024 ft 469 kts 157°
2026-04-30 12:42 38.76340 23.59468 37020 ft 468 kts 159°
2026-04-30 12:42 38.70417 23.62908 37016 ft 466 kts 162°
2026-04-30 12:43 38.64428 23.66138 37015 ft 466 kts 162°
2026-04-30 12:43 38.58503 23.69406 37013 ft 467 kts 161°
2026-04-30 12:44 38.52553 23.72789 37015 ft 468 kts 161°
2026-04-30 12:44 38.46598 23.76182 37016 ft 468 kts 161°
2026-04-30 12:45 38.40642 23.79544 37019 ft 468 kts 161°
2026-04-30 12:45 38.34669 23.82899 37019 ft 469 kts 161°
2026-04-30 12:46 38.28704 23.86254 37024 ft 469 kts 161°
2026-04-30 12:46 38.22725 23.89603 37029 ft 469 kts 161°
2026-04-30 12:47 38.16784 23.92922 37025 ft 468 kts 161°
2026-04-30 12:47 38.10805 23.96262 37022 ft 468 kts 161°
2026-04-30 12:48 38.04833 23.99596 37024 ft 468 kts 161°
2026-04-30 12:48 37.98864 24.02918 37022 ft 468 kts 161°
2026-04-30 12:49 37.92889 24.06231 37025 ft 468 kts 161°
2026-04-30 12:49 37.86913 24.09552 37028 ft 468 kts 161°
2026-04-30 12:50 37.80980 24.12849 37031 ft 469 kts 161°
2026-04-30 12:50 37.74994 24.16157 37030 ft 468 kts 161°
2026-04-30 12:51 37.69017 24.19444 37030 ft 468 kts 161°
2026-04-30 12:51 37.63048 24.22732 37034 ft 468 kts 161°
2026-04-30 12:52 37.57109 24.26005 37032 ft 468 kts 161°
2026-04-30 12:52 37.51142 24.29281 37025 ft 467 kts 161°
2026-04-30 12:53 37.45180 24.32545 37023 ft 467 kts 161°
2026-04-30 12:53 37.39210 24.35806 37019 ft 467 kts 161°
2026-04-30 12:54 37.33228 24.39072 37026 ft 468 kts 162°
2026-04-30 12:54 37.27248 24.42330 37027 ft 468 kts 161°
2026-04-30 12:55 37.21309 24.45572 37023 ft 468 kts 161°
2026-04-30 12:55 37.15330 24.48823 37027 ft 468 kts 162°
2026-04-30 12:56 37.09343 24.52065 37027 ft 468 kts 162°
2026-04-30 12:56 37.03346 24.55315 37024 ft 469 kts 162°
2026-04-30 12:57 36.98366 24.58010 37024 ft 469 kts 162°
2026-04-30 12:57 36.91387 24.61764 37021 ft 469 kts 162°
2026-04-30 12:58 36.86364 24.64460 37019 ft 469 kts 162°
2026-04-30 12:58 36.83369 24.66068 36875 ft 468 kts 162°
2026-04-30 12:58 36.80416 24.67657 36176 ft 467 kts 161°
2026-04-30 12:59 36.77434 24.69263 35451 ft 466 kts 161°
2026-04-30 12:59 36.74454 24.70869 34760 ft 464 kts 161°
2026-04-30 12:59 36.71491 24.72465 34074 ft 462 kts 161°
2026-04-30 12:59 36.68548 24.74045 33253 ft 461 kts 161°
2026-04-30 13:00 36.65594 24.75626 32305 ft 463 kts 161°
2026-04-30 13:00 36.62624 24.77212 31308 ft 466 kts 161°
2026-04-30 13:00 36.59631 24.78806 30448 ft 467 kts 161°
2026-04-30 13:00 36.56649 24.80394 29709 ft 464 kts 161°
2026-04-30 13:01 36.53700 24.81967 28968 ft 459 kts 161°
2026-04-30 13:01 36.50780 24.83529 28291 ft 454 kts 161°
2026-04-30 13:01 36.47888 24.85075 27630 ft 449 kts 161°
2026-04-30 13:01 36.45029 24.86600 27003 ft 444 kts 161°
2026-04-30 13:02 36.42199 24.88106 26395 ft 440 kts 160°
2026-04-30 13:02 36.39398 24.89593 25798 ft 435 kts 160°
2026-04-30 13:02 36.36627 24.91063 25207 ft 431 kts 160°
2026-04-30 13:02 36.33885 24.92514 24653 ft 426 kts 160°
2026-04-30 13:03 36.31202 24.93930 24095 ft 422 kts 160°
2026-04-30 13:03 36.28507 24.95354 23540 ft 419 kts 160°
2026-04-30 13:03 36.25828 24.96770 22911 ft 415 kts 160°
2026-04-30 13:03 36.23180 24.98171 22316 ft 412 kts 160°
2026-04-30 13:04 36.20546 24.99562 21746 ft 409 kts 160°
2026-04-30 13:04 36.17942 25.00940 21200 ft 406 kts 159°
2026-04-30 13:04 36.15346 25.02315 20611 ft 403 kts 159°
2026-04-30 13:04 36.12773 25.03676 19938 ft 401 kts 159°
2026-04-30 13:05 36.10246 25.05007 19296 ft 398 kts 159°
2026-04-30 13:05 36.07700 25.06348 18659 ft 395 kts 159°
2026-04-30 13:05 36.05184 25.07673 17989 ft 392 kts 159°
2026-04-30 13:06 36.00208 25.10286 16584 ft 385 kts 159°
2026-04-30 13:06 35.97756 25.11574 15904 ft 381 kts 159°
2026-04-30 13:06 35.95332 25.12845 15233 ft 376 kts 159°
2026-04-30 13:06 35.92920 25.14106 14778 ft 376 kts 159°
2026-04-30 13:07 35.90514 25.15363 14346 ft 373 kts 159°
2026-04-30 13:07 35.88127 25.16614 13930 ft 371 kts 159°
2026-04-30 13:07 35.85755 25.17858 13466 ft 369 kts 159°
2026-04-30 13:07 35.83430 25.19078 12997 ft 366 kts 159°
2026-04-30 13:08 35.81097 25.20300 12540 ft 363 kts 159°
2026-04-30 13:08 35.78775 25.21512 12084 ft 360 kts 159°
2026-04-30 13:08 35.76477 25.22711 11635 ft 357 kts 159°
2026-04-30 13:08 35.74195 25.23902 11195 ft 354 kts 159°
2026-04-30 13:09 35.71934 25.25080 10751 ft 351 kts 159°
2026-04-30 13:09 35.69696 25.26244 10321 ft 345 kts 159°
2026-04-30 13:09 35.67545 25.27362 9891 ft 327 kts 159°
2026-04-30 13:09 35.65495 25.28428 9427 ft 312 kts 159°
2026-04-30 13:10 35.63529 25.29453 8962 ft 300 kts 159°
2026-04-30 13:10 35.61633 25.30439 8496 ft 294 kts 159°
2026-04-30 13:10 35.59759 25.31411 8058 ft 290 kts 159°
2026-04-30 13:10 35.57902 25.32374 7610 ft 288 kts 159°
2026-04-30 13:11 35.56099 25.33310 7180 ft 283 kts 159°
2026-04-30 13:11 35.54292 25.34251 6741 ft 280 kts 159°
2026-04-30 13:11 35.52501 25.35181 6309 ft 278 kts 159°
2026-04-30 13:11 35.50718 25.36103 5857 ft 276 kts 159°
2026-04-30 13:12 35.48961 25.37012 5348 ft 272 kts 159°
2026-04-30 13:12 35.47222 25.37913 4815 ft 269 kts 159°
2026-04-30 13:12 35.45512 25.38796 4249 ft 265 kts 158°
2026-04-30 13:13 35.42312 25.40910 3183 ft 260 kts 152°
2026-04-30 13:13 35.40767 25.41968 3008 ft 247 kts 152°
2026-04-30 13:13 35.37861 25.43826 2999 ft 231 kts 168°
2026-04-30 13:14 35.36306 25.43648 3009 ft 228 kts 208°
2026-04-30 13:14 35.35205 25.42297 3010 ft 228 kts 242°
2026-04-30 13:14 35.33835 25.38771 3010 ft 229 kts 245°
2026-04-30 13:15 35.33162 25.36990 3007 ft 229 kts 245°
2026-04-30 13:15 35.32913 25.33185 2575 ft 224 kts 275°
2026-04-30 13:15 35.33050 25.31343 2278 ft 216 kts 275°
2026-04-30 13:16 35.33177 25.29536 1996 ft 210 kts 275°
2026-04-30 13:16 35.33298 25.27777 1714 ft 203 kts 275°
2026-04-30 13:16 35.33411 25.26117 1383 ft 191 kts 275°
2026-04-30 13:17 35.33610 25.23204 855 ft 153 kts 276°
2026-04-30 13:17 35.33696 25.21952 643 ft 143 kts 276°
2026-04-30 13:17 35.33866 25.19587 227 ft 138 kts 275°
2026-04-30 13:18 35.33947 25.18446 91 ft 123 kts 275°
2026-04-30 13:18 35.34028 25.17224 90 ft 25 kts 268°
2026-04-30 13:18 35.33985 25.17080 90 ft 12 kts 245°
2026-04-30 13:19 35.33949 25.17069 90 ft 0 kts 143°
2026-04-30 13:19 35.33944 25.17078 90 ft 5 kts 126°
2026-04-30 13:19 35.33938 25.17113 91 ft 4 kts 93°
2026-04-30 13:19 35.33936 25.17144 90 ft 3 kts 94°
2026-04-30 13:20 35.33935 25.17166 90 ft 2 kts 94°
2026-04-30 13:20 35.33934 25.17181 90 ft 1 kts 94°
2026-04-30 13:20 35.33934 25.17190 91 ft 1 kts 94°
2026-04-30 13:20 35.33934 25.17193 91 ft 0 kts 94°
2026-04-30 13:21 35.33932 25.17220 91 ft 8 kts 94°
2026-04-30 13:21 35.33925 25.17310 93 ft 11 kts 95°
2026-04-30 13:21 35.33919 25.17401 91 ft 10 kts 95°
2026-04-30 13:22 35.33907 25.17566 93 ft 9 kts 94°
2026-04-30 13:22 35.33903 25.17633 91 ft 7 kts 95°
2026-04-30 13:22 35.33896 25.17723 94 ft 2 kts 96°
2026-04-30 13:23 35.33888 25.17738 93 ft 4 kts 140°
2026-04-30 13:23 35.33841 25.17722 92 ft 3 kts 263°
2026-04-30 13:24 35.33855 25.17676 94 ft 1 kts 308°
2026-04-30 13:24 35.33863 25.17667 92 ft 1 kts 315°